www.pogodaiklimat.ru

Погода и климат >> Архив погоды >> Индия >> Керала >> Каннаноре


ПОГОДА в Каннаноре

  • Прогноз погоды в Каннаноре
  • Монитор погоды в Каннаноре

АРХИВ ПОГОДЫ в Каннаноре

Время (UTC), дата Ветер
(напр.,м/с)
 
Видим.   Явления Облачность Т
(С)
Тd
(С)
f
(%)
Тe
(С)
Тes
(С)
Комфортность P
(гПа)
Po
(гПа)
Тmin
(С)
Tmax
(С)
R
(мм)
R24
(мм)
S
(см)
03 19.04 СВ 2 4000 м мгла 5/0 2000 м
[Ac trans Ci sp]
+29.4 +25.1 78 +43 +48 опасность
перегрева
1010.2 1008.1 +26.1 +35.5 1
06 19.04 ЮЗ 4 4000 м 5/3 600 м
[Cu Sc Ci sp]
+34.6 +25.4 59 +49 +58 опасность
перегрева
1009.6 1007.6
09 19.04 З 5 10 км 4/1 600 м
[Cb calv Ci sp]
+35.0 +25.2 57 +49 +56 опасность
перегрева
1006.8 1004.8
12 19.04 СЗ 4 4000 м 5/3 600 м
[Cb cap Ci sp]
+32.6 +24.3 62 +45 +46 опасность
перегрева
1006.3 1004.3 +35.2
00 20.04 С 2 2000 м дымка 5/0 2000 м
[Ac trans Ci sp]
+27.2 +24.0 83 +38 +38 очень
душно
1006.9 1004.8
03 20.04 С 2 4000 м мгла 1/0
[Ci fib]
+30.6 +24.9 72 +44 +50 опасность
перегрева
1008.2 1006.2 +26.8 +35.2
06 20.04 ЮЗ 3 10 км 1/0
[Ci fib]
+34.6 +22.8 50 +44 +61 опасность
перегрева
1008.3 1006.3
09 20.04 ЮЗ 4 10 км 3/1 600 м
[Cb calv Ci fib]
+35.0 +24.2 54 +47 +57 опасность
перегрева
1005.6 1003.6
12 20.04 З 4 4000 м 4/3 600 м
[Cu Sc Ci fib]
+32.4 +24.4 63 +45 +46 опасность
перегрева
1004.5 1002.5 +35.3
00 21.04 СВ 1 2000 м дымка 6/1 600 м
[Sc Ac trans Ci sp]
+28.0 +24.6 82 +40 +40 очень
душно
1007.7 1005.6
03 21.04 СВ 1 4000 м 6/1 600 м
[Cu Sc Ac trans Ci sp]
+29.4 +24.5 75 +42 +46 опасность
перегрева
1009.2 1007.2 +27.6 +35.3
06 21.04 З 3 10 км 5/1 600 м
[Cu Sc Ac trans Ci sp]
+35.6 +24.6 53 +48 +60 опасность
перегрева
1008.1 1006.1
09 21.04 З 5 4000 м 6/1 600 м
[Cu Sc Ac trans Cs]
+33.4 +24.6 60 +46 +52 опасность
перегрева
1005.8 1003.8
12 21.04 З 3 4000 м 6/1 600 м
[Cu Sc Ac trans Ci sp]
+32.4 +24.4 63 +45 +46 опасность
перегрева
1005.0 1003.0 +35.7
00 22.04 С 2 2000 м дымка 5/0 2000 м
[Ac trans Ci sp]
+27.4 +24.2 83 +38 +38 очень
душно
1006.1 1004.0
03 22.04 С 2 4000 м мгла 5/0
[Cs]
+30.0 +24.0 70 +41 +47 опасность
перегрева
1007.8 1005.8 +27.0 +35.7
06 22.04 З 4 10 км 5/1 600 м
[Cu Sc Ci sp]
+34.4 +23.2 52 +45 +56 опасность
перегрева
1007.3 1005.3
09 22.04 З 6 10 км 3/0
[Ci fib]
+35.0 +25.2 57 +49 +55 опасность
перегрева
1004.5 1002.5
12 22.04 З 4 10 км 3/1 600 м
[Cu Sc Ci fib]
+32.4 +25.4 67 +47 +48 опасность
перегрева
1004.4 1002.4 +35.4
00 23.04 ЮВ 8 2000 м гроза без осадков 9/5 300 м
[Cb cap Ac As]
+28.0 +24.6 82 +40 +40 очень
душно
1007.9 1005.8
03 23.04 ЮВ 2 4000 м мгла {гроза} 4/1 600 м
[Sc Ci sp]
+29.8 +24.4 73 +42 +47 опасность
перегрева
1009.4 1007.4 +27.3 +35.4
06 23.04 ЮЗ 3 10 км {гроза} 5/1 600 м
[Cu Sc Ac trans Ci sp]
+34.0 +23.4 54 +45 +57 опасность
перегрева
1009.3 1007.3
09 23.04 ЮЗ 4 10 км 4/3 600 м
[Cb calv Ci fib]
+34.8 +24.3 55 +47 +55 опасность
перегрева
1007.1 1005.1
12 23.04 СЗ 4 4000 м 6/4 600 м
[Cb calv Ac trans Ci sp]
+32.6 +25.9 68 +48 +49 опасность
перегрева
1006.7 1004.7 +35.2
00 24.04 СВ 2 2000 м дымка 4/0 2000 м
[Ac trans Ci fib]
+26.2 +22.7 81 +35 +35 очень
душно
1008.3 1006.2
03 24.04 С 2 4000 м 3/0 2000 м
[Ac trans Ci fib]
+30.4 +23.8 68 +42 +48 опасность
перегрева
1010.1 1008.1 +25.2 +35.2
06 24.04 ЮЗ 4 10 км 5/0 2000 м
[Ac trans Ci sp]
+35.2 +25.1 56 +49 +61 опасность
перегрева
1009.3 1007.3
09 24.04 З 4 10 км 3/1 600 м
[Cb calv Ci fib]
+35.6 +26.5 59 +52 +62 опасность
перегрева
1006.7 1004.7
12 24.04 З 5 4000 м 6/5 600 м
[Cb cap Ci fib]
+33.6 +26.1 65 +50 +50 опасность
перегрева
1006.4 1004.4 +35.7
00 25.04 СВ 2 2000 м дымка 3/0
[Ci fib]
+28.2 +24.8 82 +40 +40 очень
душно
1007.9 1005.8
03 25.04 ЮВ 2 4000 м 6/3 600 м
[Cu Sc Ac trans Ci sp]
+30.4 +26.2 78 +46 +49 опасность
перегрева
1010.2 1008.2 +27.5 +35.7
06 25.04 ЮЗ 4 10 км 5/4 600 м
[Cu Sc Ci fib]
+34.6 +26.0 61 +50 +58 опасность
перегрева
1010.3 1008.3
09 25.04 З 5 10 км 4/1 600 м
[Cu Sc Ci sp]
+36.4 +26.8 58 +54 +61 опасность
перегрева
1008.1 1006.1
12 25.04 З 5 4000 м 6/5 600 м
[Cb calv Ci fib]
+32.8 +25.8 67 +48 +49 опасность
перегрева
1007.1 1005.1 +36.8
00 26.04 СВ 1 2000 м дымка 3/0
[Ci fib]
+28.0 +25.7 87 +41 +41 опасность
перегрева
1007.5 1005.4

 

Местоположение метеостанции Каннаноре (Керала, Индия): широта 11.83 долгота 75.33 высота над уровнем моря 18 м.

В архиве по умолчанию представлена погода в Каннаноре за последнюю неделю. Архивные данные за месяц целиком и за предыдущие месяцы, начиная с января 2011 года, Вы можете получить, выбрав интересующий диапазон дат из раскрывающегося списка и нажав кнопку "Ввод!".


*Определитесь, кто Вы:
робот инопланетянин человек

Внимание! Время в таблицах - всемирное. Для получения местного времени необходимо прибавить поправку, которая равна 5.5 ч.

Смотрите также архив погоды в соседних городах и на ближайших метеорологических станциях:

Погода в Мадикери (Карнатака, Индия) (79 км)
Погода в Кожикоде (Керала, Индия) (81 км)
Погода в Карипере (Керала, Индия) (103 км)
Погода в Мангалор аэропорт (Карнатака, Индия) (131 км)
Погода в Мангалоре (Карнатака, Индия) (136 км)
Погода в Майсуре (Карнатака, Индия) (158 км)
Погода в Удагамандаламе (Тамилнад, Индия) (160 км)
Погода в Чикмагалуре (Карнатака, Индия) (164 км)
Погода в Хассане (Карнатака, Индия) (167 км)
Погода в Кунуре (Тамилнад, Индия) (169 км)

Пояснения к столбцам:

Ветер - указаны скорость ветра в м/с - средняя за 10 мин, порывы в срок и между сроками (в фигурных скобках) и направление, откуда дует ветер: С - северный, СВ - северо-восточный, В - восточный, ЮВ - юго-восточный, Ю - южный, ЮЗ - юго-западный, З - западный, СЗ - северо-западный.
Видимость - горизонтальная дальность видимости в метрах или километрах. При видимости от 1 до 10 км при отсутствии осадков обычно наблюдается дымка, при ухудшении видимости до 1 км и менее - туман. В сухую погоду видимость может ухудшаться дымом, пылью или мглою.
Явления - указаны атмосферные явления, наблюдавшиеся в срок или в последний час перед сроком; фигурными скобками обозначены явления, наблюдавшиеся между сроками (за 1-3 часа до срока); квадратными скобками обозначены град или гололедные отложения с указанием их диаметра в мм.
Облачность - указаны через наклонную черту общая и нижняя облачность в баллах и высота нижней границы облаков в метрах; квадратными скобками обозначены формы облаков: Ci - перистые, Cs - перисто-слоистые, Cc - перисто-кучевые, Ac - высококучевые, As - высокослоистые, Sc - слоисто-кучевые, Ns - слоисто-дождевые, Cu - кучевые, Cb - кучево-дождевые. Подробнее классификацию облаков см. в Атласе облаков (PDF).
T - Температура воздуха - температура, измеренная на высоте 2 м над землей.
Td - Температура точки росы - температура, при понижении до которой содержащийся в воздухе водяной пар достигнет насыщения.
f - Относительная влажность воздуха - влажноcть воздуха, измеренная на высоте 2 м над землей.
Te - Эффективная температура - температура, которую ощущает одетый по сезону человек в тени. Характеристика душности погоды. При расчете учитывается влияние влажности воздуха и скорости ветра на теплоощущения человека.
Tes - Эффективная температура на солнце - температура, которую ощущает человек, с поправкой на солнечный нагрев. Характеристика знойности погоды. Зависит от высоты солнца над горизонтом, облачности и скорости ветра. Ночью, в пасмурную погоду, а также при ветре 12 м/с и более поправка равна нулю.
P - Атмосферное давление - приведенное к уровню моря атмосферное давление.
Po - Атмосферное давление - измеренное на уровне метеостанции атмосферное давление.
Tmin - Минимальная температура - минимум температуры воздуха на высоте 2 м над землей.
Tmax - Максимальная температура - максимум температуры воздуха на высоте 2 м над землей.
R - Количество осадков - Количество выпавших осадков за период времени, мм. При наведении курсора мыши на число - период времени, за который выпало указанное количество осадков.
R24 - Количество осадков - Количество выпавших осадков за 24 часа, мм.
S - Снежный покров - Высота снежного покрова, см. При наведении курсора мыши на число - состояние снежного покрова и степень покрытия местности в баллах.